Location: Asheville, NC
(35.6000°N, 82.5500°W)
Time: 01:54:19
(UTC-05:00)

Vanguard 1 Rocket - Pass Details

Date: 17 February 2018
Orbit: 655 x 4222 km, 34.3° (Epoch: 20 February)

Event Time Altitude Azimuth Distance (km) Brightness Sun altitude
Rises 19:39:54 0° 173° (S) 5,819 11.5 -18.1°
Reaches altitude 10° 19:46:13 10° 151° (SSE) 5,533 11.1 -19.3°
Enters shadow 19:54:44 15° 122° (ESE) 5,887 11.0 -21.1°
